GEC8264 EDDF-SBKP

Flight info

Callsign GEC8264
Flight time N/A
Altitude 27000
Route ANEKI3F ANEKI Y163 HERBI/N0487F290 Y164 MOPAN DCT LUTIX DCT BENOT DCT NEMOS DCT NINTU DCT MEBAK DCT REPSI DCT LERGA DCT MINSO DCT NARAK DCT AGN DCT PIPOR L866 PPN DCT MIRPO DCT DGO DCT NEA DCT ARDID DCT INBOM DCT VERAM/N0495F310 DCT MANOX/M083F300 DCT 33N020W DCT PIBIL/N0497F290 DCT INSAD/M084F320 DCT OBOMO/N0499F320 DCT TARIM DCT PINRU/N0495F330 UN741 NANIK/N0496F320 UN741 CARVE/N0493F340 UN741 ERUGU UZ61 ANBUM DCT EVPIV DCT OGRAD UZ30 ARSAX/N0439F240 Z92 ENTIT
Aircraft B77L/H-SDE2E3FGHIJ1J3J4J5M1P2RWXYZ/LB1D1

Departure

Time 2026-04-14 02:32
Airport Frankfurt Main Airport (EDDF)

Arrival

Time N/A
Airport Viracopos International Airport (SBKP)
Time Latitude Longitude Altitude Speed Heading
2026-04-14 01:09 50.03961 8.54373 377 ft 0 kts 70°
2026-04-14 02:18 50.03961 8.54370 377 ft 1 kts 70°
2026-04-14 02:18 50.03955 8.54345 377 ft 3 kts 70°
2026-04-14 02:18 50.03948 8.54317 377 ft 2 kts 70°
2026-04-14 02:18 50.03943 8.54294 377 ft 3 kts 84°
2026-04-14 02:19 50.03943 8.54270 377 ft 3 kts 118°
2026-04-14 02:19 50.03952 8.54253 377 ft 3 kts 153°
2026-04-14 02:19 50.03970 8.54241 377 ft 3 kts 161°
2026-04-14 02:19 50.03978 8.54237 377 ft 0 kts 160°
2026-04-14 02:22 50.03977 8.54238 377 ft 1 kts 160°
2026-04-14 02:22 50.03950 8.54253 377 ft 6 kts 160°
2026-04-14 02:23 50.03910 8.54275 377 ft 6 kts 160°
2026-04-14 02:23 50.03865 8.54300 377 ft 7 kts 160°
2026-04-14 02:23 50.03818 8.54327 377 ft 8 kts 160°
2026-04-14 02:23 50.03766 8.54357 377 ft 8 kts 159°
2026-04-14 02:24 50.03711 8.54392 377 ft 9 kts 144°
2026-04-14 02:24 50.03698 8.54479 377 ft 9 kts 79°
2026-04-14 02:24 50.03719 8.54574 377 ft 12 kts 70°
2026-04-14 02:24 50.03750 8.54706 377 ft 14 kts 69°
2026-04-14 02:25 50.03783 8.54844 377 ft 13 kts 69°
2026-04-14 02:25 50.03819 8.54991 377 ft 15 kts 69°
2026-04-14 02:25 50.03856 8.55149 377 ft 16 kts 70°
2026-04-14 02:25 50.03893 8.55304 377 ft 15 kts 70°
2026-04-14 02:26 50.03935 8.55481 377 ft 18 kts 69°
2026-04-14 02:26 50.03977 8.55653 377 ft 17 kts 69°
2026-04-14 02:26 50.04016 8.55819 377 ft 17 kts 70°
2026-04-14 02:26 50.04059 8.55997 377 ft 17 kts 69°
2026-04-14 02:27 50.04099 8.56166 377 ft 16 kts 70°
2026-04-14 02:27 50.04138 8.56331 377 ft 16 kts 70°
2026-04-14 02:27 50.04182 8.56512 377 ft 18 kts 69°
2026-04-14 02:27 50.04231 8.56719 377 ft 21 kts 69°
2026-04-14 02:28 50.04281 8.56927 377 ft 20 kts 70°
2026-04-14 02:28 50.04329 8.57127 377 ft 19 kts 69°
2026-04-14 02:28 50.04376 8.57327 377 ft 19 kts 69°
2026-04-14 02:28 50.04423 8.57518 377 ft 18 kts 70°
2026-04-14 02:29 50.04466 8.57701 377 ft 18 kts 70°
2026-04-14 02:29 50.04508 8.57877 377 ft 17 kts 69°
2026-04-14 02:29 50.04548 8.58045 377 ft 16 kts 69°
2026-04-14 02:29 50.04586 8.58204 377 ft 15 kts 69°
2026-04-14 02:30 50.04623 8.58354 377 ft 15 kts 69°
2026-04-14 02:30 50.04653 8.58493 377 ft 10 kts 93°
2026-04-14 02:30 50.04618 8.58569 377 ft 4 kts 151°
2026-04-14 02:30 50.04616 8.58571 377 ft 0 kts 151°
2026-04-14 02:31 50.04588 8.58599 377 ft 8 kts 146°
2026-04-14 02:31 50.04542 8.58648 377 ft 8 kts 146°
2026-04-14 02:31 50.04499 8.58634 377 ft 8 kts 246°
2026-04-14 02:31 50.04453 8.58456 377 ft 43 kts 251°
2026-04-14 02:32 50.04269 8.57681 377 ft 109 kts 249°
2026-04-14 02:32 50.03931 8.56264 379 ft 168 kts 249°
2026-04-14 02:32 50.03476 8.54415 691 ft 192 kts 250°
2026-04-14 02:32 50.02980 8.52412 1307 ft 204 kts 250°
2026-04-14 02:33 50.02382 8.50398 2038 ft 209 kts 239°
2026-04-14 02:33 50.01295 8.48909 2729 ft 212 kts 216°
2026-04-14 02:33 49.99851 8.48216 3047 ft 228 kts 191°
2026-04-14 02:34 49.96921 8.50348 3790 ft 249 kts 134°
2026-04-14 02:34 49.95713 8.52311 4218 ft 256 kts 140°
2026-04-14 02:34 49.94086 8.53467 4610 ft 259 kts 166°
2026-04-14 02:34 49.92303 8.53742 5206 ft 260 kts 180°
2026-04-14 02:35 49.90457 8.53709 5580 ft 271 kts 183°
2026-04-14 02:35 49.88540 8.53638 6046 ft 279 kts 182°
2026-04-14 02:35 49.86583 8.53618 6595 ft 284 kts 181°
2026-04-14 02:35 49.84597 8.53674 7171 ft 287 kts 180°
2026-04-14 02:36 49.82587 8.53802 7745 ft 291 kts 179°
2026-04-14 02:36 49.80554 8.53959 8346 ft 293 kts 178°
2026-04-14 02:36 49.78544 8.54103 9016 ft 293 kts 180°
2026-04-14 02:36 49.76504 8.54058 9687 ft 292 kts 184°
2026-04-14 02:37 49.74476 8.53860 10323 ft 294 kts 186°
2026-04-14 02:37 49.72398 8.53563 10634 ft 307 kts 187°
2026-04-14 02:37 49.70217 8.53209 10849 ft 323 kts 187°
2026-04-14 02:37 49.67915 8.52851 11032 ft 341 kts 187°
2026-04-14 02:38 49.65509 8.52499 11386 ft 353 kts 186°
2026-04-14 02:38 49.63041 8.52153 11878 ft 360 kts 186°
2026-04-14 02:38 49.60527 8.51805 12421 ft 366 kts 186°
2026-04-14 02:38 49.57981 8.51461 13026 ft 368 kts 186°
2026-04-14 02:39 49.55419 8.51119 13641 ft 372 kts 186°
2026-04-14 02:39 49.52829 8.50776 14218 ft 375 kts 186°
2026-04-14 02:39 49.50220 8.50432 14805 ft 378 kts 186°
2026-04-14 02:39 49.47584 8.50085 15349 ft 382 kts 186°
2026-04-14 02:40 49.44928 8.49736 15934 ft 384 kts 186°
2026-04-14 02:40 49.42252 8.49384 16483 ft 387 kts 186°
2026-04-14 02:40 49.39555 8.49030 16975 ft 392 kts 186°
2026-04-14 02:40 49.36827 8.48672 17520 ft 394 kts 185°
2026-04-14 02:41 49.34085 8.48313 18034 ft 398 kts 185°
2026-04-14 02:41 49.31315 8.47950 18548 ft 400 kts 185°
2026-04-14 02:41 49.28526 8.47590 19031 ft 404 kts 185°
2026-04-14 02:41 49.25717 8.47232 19538 ft 406 kts 185°
2026-04-14 02:42 49.22893 8.46875 20022 ft 409 kts 185°
2026-04-14 02:42 49.20045 8.46515 20478 ft 412 kts 185°
2026-04-14 02:42 49.17178 8.46155 20971 ft 414 kts 185°
2026-04-14 02:42 49.14302 8.45793 21432 ft 417 kts 185°
2026-04-14 02:43 49.11401 8.45428 21847 ft 420 kts 185°
2026-04-14 02:43 49.08478 8.45059 22306 ft 422 kts 185°
2026-04-14 02:43 49.05557 8.44481 22733 ft 425 kts 189°
2026-04-14 02:43 49.02650 8.43605 23184 ft 427 kts 192°
2026-04-14 02:44 48.99746 8.42563 23560 ft 431 kts 193°
2026-04-14 02:44 48.96827 8.41474 24016 ft 432 kts 193°
2026-04-14 02:44 48.93892 8.40418 24406 ft 435 kts 192°
2026-04-14 02:44 48.90936 8.39382 24803 ft 437 kts 192°
2026-04-14 02:45 48.87960 8.38347 25147 ft 441 kts 192°
2026-04-14 02:45 48.84957 8.37304 25547 ft 443 kts 192°
2026-04-14 02:45 48.81943 8.36257 25895 ft 446 kts 192°
2026-04-14 02:45 48.78906 8.35203 26273 ft 448 kts 192°
2026-04-14 02:46 48.75863 8.34114 26626 ft 451 kts 193°
2026-04-14 02:46 48.72843 8.32995 26969 ft 454 kts 193°
2026-04-14 02:46 48.69769 8.31868 27333 ft 456 kts 193°
2026-04-14 02:46 48.66670 8.30741 27662 ft 459 kts 193°
2026-04-14 02:47 48.63571 8.29620 28004 ft 461 kts 193°
2026-04-14 02:47 48.57262 8.27342 28076 ft 471 kts 193°
2026-04-14 02:48 48.50842 8.25029 28087 ft 478 kts 193°
2026-04-14 02:48 48.44372 8.22669 28095 ft 478 kts 193°
2026-04-14 02:49 48.39004 8.20714 28097 ft 477 kts 193°
2026-04-14 02:49 48.32548 8.18375 28105 ft 478 kts 193°
2026-04-14 02:50 48.25035 8.15376 28106 ft 479 kts 199°
2026-04-14 02:50 48.19898 8.12255 28106 ft 479 kts 204°
2026-04-14 02:51 48.13901 8.07873 28104 ft 480 kts 206°
2026-04-14 02:51 48.07956 8.03319 28105 ft 481 kts 206°
2026-04-14 02:52 48.01969 7.98866 28105 ft 480 kts 206°
2026-04-14 02:52 47.95967 7.94462 28103 ft 480 kts 205°
2026-04-14 02:53 47.89973 7.90045 28105 ft 480 kts 206°
2026-04-14 02:53 47.83982 7.85636 28104 ft 480 kts 206°
2026-04-14 02:54 47.77991 7.81263 28107 ft 480 kts 205°
2026-04-14 02:54 47.71986 7.76898 28108 ft 480 kts 205°
2026-04-14 02:55 47.65989 7.72551 28111 ft 480 kts 205°
2026-04-14 02:55 47.59988 7.68213 28110 ft 480 kts 205°
2026-04-14 02:56 47.53980 7.63880 28109 ft 479 kts 205°
2026-04-14 02:56 47.47985 7.59569 28109 ft 479 kts 205°
2026-04-14 02:57 47.42010 7.55253 28103 ft 479 kts 206°
2026-04-14 02:57 47.36009 7.50953 28097 ft 479 kts 205°
2026-04-14 02:58 47.30017 7.46689 28087 ft 479 kts 205°
2026-04-14 02:58 47.24053 7.42455 28082 ft 479 kts 205°
2026-04-14 02:59 47.18208 7.37815 28083 ft 479 kts 214°
2026-04-14 02:59 47.13239 7.31313 28081 ft 480 kts 228°
2026-04-14 03:00 47.09147 7.23575 28084 ft 480 kts 232°
2026-04-14 03:00 47.05030 7.15871 28076 ft 480 kts 230°
2026-04-14 03:01 47.00861 7.08234 28073 ft 480 kts 231°
2026-04-14 03:01 46.96674 7.00626 28073 ft 480 kts 230°
2026-04-14 03:02 46.92483 6.93029 28074 ft 480 kts 230°
2026-04-14 03:02 46.88295 6.85450 28076 ft 479 kts 230°
2026-04-14 03:03 46.84099 6.77901 28078 ft 478 kts 230°
2026-04-14 03:03 46.79894 6.70361 28081 ft 478 kts 230°
2026-04-14 03:04 46.75687 6.62838 28081 ft 479 kts 230°
2026-04-14 03:04 46.71478 6.55330 28081 ft 478 kts 230°
2026-04-14 03:05 46.67290 6.47808 28080 ft 477 kts 231°
2026-04-14 03:05 46.63123 6.40285 28081 ft 477 kts 230°
2026-04-14 03:06 46.58927 6.32794 28083 ft 477 kts 230°
2026-04-14 03:06 46.54721 6.25327 28083 ft 478 kts 230°
2026-04-14 03:07 46.50503 6.17862 28082 ft 478 kts 230°
2026-04-14 03:07 46.46274 6.10400 28084 ft 478 kts 230°
2026-04-14 03:08 46.42044 6.02955 28083 ft 478 kts 230°
2026-04-14 03:08 46.37843 5.95581 28085 ft 478 kts 230°
2026-04-14 03:09 46.33617 5.88141 28083 ft 478 kts 231°
2026-04-14 03:09 46.29391 5.80716 28085 ft 478 kts 230°
2026-04-14 03:10 46.25133 5.73330 28084 ft 478 kts 230°
2026-04-14 03:10 46.20871 5.65960 28076 ft 478 kts 230°
2026-04-14 03:11 46.16608 5.58598 28076 ft 478 kts 230°
2026-04-14 03:11 46.12476 5.51070 28074 ft 479 kts 234°
2026-04-14 03:12 46.08707 5.43151 28084 ft 479 kts 236°
2026-04-14 03:12 46.04981 5.35192 28083 ft 479 kts 235°
2026-04-14 03:13 46.01191 5.27309 28085 ft 480 kts 235°
2026-04-14 03:13 45.97370 5.19429 28084 ft 480 kts 235°
2026-04-14 03:14 45.93541 5.11505 28083 ft 485 kts 236°
2026-04-14 03:14 45.89696 5.03491 28091 ft 489 kts 236°
2026-04-14 03:15 45.85835 4.95451 28097 ft 489 kts 236°
2026-04-14 03:15 45.81921 4.87454 28111 ft 490 kts 236°
2026-04-14 03:16 45.78009 4.79511 28110 ft 492 kts 236°
2026-04-14 03:16 45.74058 4.71502 28111 ft 493 kts 236°
2026-04-14 03:17 45.70098 4.63473 28109 ft 494 kts 236°
2026-04-14 03:17 45.64182 4.51387 28111 ft 495 kts 236°
2026-04-14 03:18 45.60197 4.43362 28111 ft 496 kts 236°
2026-04-14 03:18 45.56204 4.35340 28111 ft 496 kts 236°
2026-04-14 03:19 45.52204 4.27311 28113 ft 496 kts 236°
2026-04-14 03:19 45.48177 4.19314 28112 ft 497 kts 236°
2026-04-14 03:20 45.44139 4.11333 28111 ft 496 kts 236°
2026-04-14 03:20 45.40150 4.03322 28113 ft 496 kts 236°
2026-04-14 03:21 45.36110 3.95368 28112 ft 497 kts 236°
2026-04-14 03:21 45.32042 3.87403 28109 ft 498 kts 236°
2026-04-14 03:22 45.27975 3.79450 28110 ft 497 kts 236°
2026-04-14 03:22 45.23928 3.71488 28114 ft 497 kts 237°
2026-04-14 03:23 45.21942 3.67451 28279 ft 500 kts 237°
2026-04-14 03:23 45.19958 3.63411 28762 ft 498 kts 237°
2026-04-14 03:23 45.17978 3.59397 29340 ft 494 kts 237°
2026-04-14 03:23 45.16011 3.55428 29875 ft 491 kts 237°
2026-04-14 03:24 45.14043 3.51462 30117 ft 492 kts 237°
2026-04-14 03:24 45.12074 3.47504 30123 ft 492 kts 236°
2026-04-14 03:24 45.08137 3.39602 30115 ft 491 kts 236°
2026-04-14 03:25 45.04217 3.31696 30113 ft 491 kts 237°
2026-04-14 03:25 45.00342 3.23752 30113 ft 491 kts 237°
2026-04-14 03:26 44.96401 3.15872 30112 ft 491 kts 236°
2026-04-14 03:26 44.92462 3.08064 30111 ft 492 kts 237°
2026-04-14 03:27 44.88491 3.00205 30115 ft 492 kts 237°
2026-04-14 03:27 44.84519 2.92346 30114 ft 493 kts 237°
2026-04-14 03:28 44.80712 2.84318 30112 ft 493 kts 240°
2026-04-14 03:28 44.77024 2.76177 30112 ft 493 kts 240°
2026-04-14 03:29 44.73292 2.68085 30112 ft 494 kts 239°
2026-04-14 03:29 44.69526 2.59992 30112 ft 495 kts 239°
2026-04-14 03:30 44.65749 2.51904 30112 ft 495 kts 240°
2026-04-14 03:30 44.62012 2.43766 30113 ft 496 kts 240°
2026-04-14 03:31 44.58239 2.35650 30113 ft 497 kts 240°
2026-04-14 03:31 44.54444 2.27548 30115 ft 498 kts 240°
2026-04-14 03:32 44.50631 2.19439 30115 ft 498 kts 240°
2026-04-14 03:32 44.46815 2.11333 30115 ft 499 kts 240°
2026-04-14 03:33 44.43018 2.03214 30118 ft 499 kts 240°
2026-04-14 03:33 44.39171 1.95129 30121 ft 500 kts 240°
2026-04-14 03:34 44.33363 1.82976 30137 ft 501 kts 240°
2026-04-14 03:35 44.29493 1.74888 30141 ft 501 kts 240°
2026-04-14 03:35 44.25708 1.66730 30147 ft 500 kts 242°
2026-04-14 03:36 44.21958 1.58553 30151 ft 500 kts 241°
2026-04-14 03:36 44.18829 1.51783 30154 ft 500 kts 241°
2026-04-14 03:37 44.15057 1.43651 30159 ft 500 kts 241°
2026-04-14 03:37 44.11276 1.35519 30161 ft 500 kts 241°
2026-04-14 03:38 44.07535 1.27360 30164 ft 500 kts 242°
2026-04-14 03:38 44.03795 1.19198 30165 ft 501 kts 242°
2026-04-14 03:39 44.00006 1.11076 30167 ft 501 kts 241°
2026-04-14 03:39 43.96189 1.02968 30167 ft 502 kts 241°
2026-04-14 03:40 43.92365 0.94859 30168 ft 503 kts 241°
2026-04-14 03:40 43.88540 0.86750 30169 ft 503 kts 242°
2026-04-14 03:41 43.84883 0.78505 30170 ft 502 kts 244°
2026-04-14 03:41 43.81376 0.70229 30172 ft 501 kts 244°
2026-04-14 03:42 43.77803 0.61938 30170 ft 502 kts 244°
2026-04-14 03:42 43.74206 0.53666 30173 ft 502 kts 244°
2026-04-14 03:43 43.70597 0.45396 30176 ft 502 kts 244°
2026-04-14 03:43 43.67038 0.37091 30176 ft 502 kts 244°
2026-04-14 03:44 43.63447 0.28812 30178 ft 502 kts 244°
2026-04-14 03:44 43.59837 0.20556 30178 ft 503 kts 244°
2026-04-14 03:45 43.56216 0.12310 30179 ft 503 kts 244°
2026-04-14 03:45 43.52585 0.04070 30178 ft 503 kts 244°
2026-04-14 03:46 43.48943 -0.04172 30178 ft 506 kts 245°
2026-04-14 03:46 43.45237 -0.12538 30176 ft 517 kts 246°
2026-04-14 03:47 43.41457 -0.21039 30174 ft 524 kts 246°
2026-04-14 03:47 43.37649 -0.29586 30167 ft 524 kts 246°
2026-04-14 03:48 43.33845 -0.38094 30168 ft 522 kts 246°
2026-04-14 03:48 43.30040 -0.46585 30172 ft 522 kts 246°
2026-04-14 03:49 43.26250 -0.55017 30176 ft 522 kts 246°
2026-04-14 03:49 43.22432 -0.63489 30174 ft 522 kts 246°
2026-04-14 03:50 43.18605 -0.71949 30170 ft 522 kts 246°
2026-04-14 03:50 43.14782 -0.80478 30167 ft 522 kts 246°
2026-04-14 03:51 43.10962 -0.88862 30163 ft 522 kts 246°
2026-04-14 03:51 43.07100 -0.97290 30163 ft 523 kts 246°
2026-04-14 03:52 43.03235 -1.05711 30160 ft 523 kts 246°
2026-04-14 03:52 42.99371 -1.14124 30162 ft 523 kts 246°
2026-04-14 03:53 42.95496 -1.22524 30165 ft 523 kts 246°
2026-04-14 03:53 42.91620 -1.30907 30165 ft 522 kts 245°
2026-04-14 03:54 42.87793 -1.39303 30172 ft 521 kts 246°
2026-04-14 03:54 42.83931 -1.47667 30170 ft 521 kts 245°
2026-04-14 03:55 42.80041 -1.55998 30170 ft 522 kts 245°
2026-04-14 03:55 42.76154 -1.64333 30170 ft 520 kts 246°
2026-04-14 03:56 42.72990 -1.73064 30170 ft 512 kts 256°
2026-04-14 03:56 42.70654 -1.82145 30172 ft 505 kts 262°
2026-04-14 03:57 42.68660 -1.91254 30168 ft 502 kts 262°
2026-04-14 03:57 42.66606 -2.00253 30166 ft 502 kts 261°
2026-04-14 03:58 42.64522 -2.09316 30169 ft 503 kts 261°
2026-04-14 03:58 42.62427 -2.18379 30173 ft 503 kts 260°
2026-04-14 03:59 42.60218 -2.27401 30169 ft 504 kts 260°
2026-04-14 03:59 42.58000 -2.36424 30172 ft 504 kts 260°
2026-04-14 04:00 42.55781 -2.45451 30171 ft 504 kts 260°
2026-04-14 04:00 42.53633 -2.54485 30172 ft 504 kts 260°
2026-04-14 04:01 42.51429 -2.63496 30170 ft 503 kts 259°
2026-04-14 04:01 42.49194 -2.72478 30171 ft 503 kts 259°
2026-04-14 04:02 42.46956 -2.81456 30173 ft 503 kts 259°
2026-04-14 04:02 42.44618 -2.90395 30175 ft 505 kts 256°
2026-04-14 04:03 42.41748 -2.99117 30169 ft 509 kts 252°
2026-04-14 04:03 42.38669 -3.07709 30170 ft 511 kts 252°
2026-04-14 04:04 42.35628 -3.16401 30171 ft 511 kts 252°
2026-04-14 04:04 42.32621 -3.25096 30170 ft 510 kts 252°
2026-04-14 04:05 42.29638 -3.33786 30172 ft 509 kts 253°
2026-04-14 04:05 42.26696 -3.42463 30171 ft 508 kts 252°
2026-04-14 04:06 42.23713 -3.51124 30172 ft 509 kts 252°
2026-04-14 04:06 42.20716 -3.59773 30171 ft 509 kts 252°
2026-04-14 04:07 42.17710 -3.68415 30172 ft 509 kts 252°
2026-04-14 04:07 42.14727 -3.77066 30170 ft 509 kts 252°
2026-04-14 04:08 42.11715 -3.85690 30171 ft 509 kts 251°
2026-04-14 04:08 42.08674 -3.94301 30172 ft 509 kts 251°
2026-04-14 04:09 42.05630 -4.02904 30172 ft 509 kts 251°
2026-04-14 04:09 42.02584 -4.11508 30175 ft 509 kts 251°
2026-04-14 04:10 41.99402 -4.20034 30177 ft 511 kts 249°
2026-04-14 04:10 41.96105 -4.28497 30181 ft 511 kts 249°
2026-04-14 04:11 41.92823 -4.36977 30184 ft 512 kts 249°
2026-04-14 04:11 41.89549 -4.45449 30188 ft 511 kts 249°
2026-04-14 04:12 41.86284 -4.53908 30192 ft 510 kts 250°
2026-04-14 04:12 41.83074 -4.62387 30195 ft 510 kts 250°
2026-04-14 04:13 41.79832 -4.70835 30198 ft 509 kts 249°
2026-04-14 04:13 41.76598 -4.79198 30199 ft 509 kts 249°
2026-04-14 04:14 41.73312 -4.87660 30201 ft 508 kts 249°
2026-04-14 04:14 41.70065 -4.95993 30200 ft 508 kts 249°
2026-04-14 04:15 41.66797 -5.04354 30200 ft 507 kts 249°
2026-04-14 04:15 41.63524 -5.12705 30199 ft 507 kts 249°
2026-04-14 04:16 41.60250 -5.21036 30200 ft 506 kts 249°
2026-04-14 04:16 41.56976 -5.29343 30199 ft 505 kts 249°
2026-04-14 04:17 41.53697 -5.37638 30201 ft 505 kts 249°
2026-04-14 04:17 41.50417 -5.45913 30202 ft 504 kts 249°
2026-04-14 04:18 41.47134 -5.54172 30210 ft 504 kts 249°
2026-04-14 04:18 41.43844 -5.62427 30213 ft 504 kts 249°
2026-04-14 04:19 41.40552 -5.70663 30218 ft 503 kts 249°
2026-04-14 04:19 41.37256 -5.78886 30218 ft 503 kts 249°
2026-04-14 04:20 41.33955 -5.87099 30220 ft 503 kts 249°
2026-04-14 04:20 41.30672 -5.95322 30220 ft 503 kts 249°
2026-04-14 04:21 41.27365 -6.03526 30220 ft 503 kts 248°
2026-04-14 04:21 41.24042 -6.11683 30223 ft 501 kts 248°
2026-04-14 04:22 41.20720 -6.19823 30223 ft 502 kts 248°
2026-04-14 04:22 41.17324 -6.27929 30222 ft 504 kts 245°
2026-04-14 04:23 41.13357 -6.35632 30223 ft 508 kts 240°
2026-04-14 04:23 41.09046 -6.43086 30222 ft 511 kts 238°
2026-04-14 04:24 41.04736 -6.50492 30223 ft 511 kts 239°
2026-04-14 04:24 41.00440 -6.57989 30222 ft 511 kts 239°
2026-04-14 04:25 40.96161 -6.65484 30224 ft 510 kts 239°
2026-04-14 04:25 40.91934 -6.73009 30226 ft 509 kts 239°
2026-04-14 04:26 40.87689 -6.80498 30223 ft 509 kts 239°
2026-04-14 04:26 40.84149 -6.86708 30227 ft 509 kts 239°
2026-04-14 04:27 40.79879 -6.94171 30229 ft 509 kts 239°
2026-04-14 04:27 40.75606 -7.01619 30228 ft 509 kts 239°
2026-04-14 04:28 40.71333 -7.09049 30228 ft 508 kts 239°
2026-04-14 04:28 40.67057 -7.16465 30229 ft 508 kts 239°
2026-04-14 04:29 40.62778 -7.23869 30228 ft 508 kts 238°
2026-04-14 04:29 40.58499 -7.31256 30229 ft 507 kts 238°
2026-04-14 04:30 40.54249 -7.38575 30228 ft 507 kts 238°
2026-04-14 04:30 40.49965 -7.45936 30228 ft 507 kts 238°
2026-04-14 04:31 40.45683 -7.53276 30229 ft 506 kts 238°
2026-04-14 04:31 40.39255 -7.64263 30229 ft 506 kts 238°
2026-04-14 04:32 40.34965 -7.71572 30229 ft 505 kts 238°
2026-04-14 04:32 40.30675 -7.78865 30230 ft 505 kts 238°
2026-04-14 04:33 40.26380 -7.86151 30229 ft 505 kts 238°
2026-04-14 04:33 40.22084 -7.93419 30230 ft 505 kts 238°
2026-04-14 04:34 40.17805 -8.00692 30231 ft 505 kts 238°
2026-04-14 04:34 40.13507 -8.07951 30230 ft 505 kts 238°
2026-04-14 04:35 40.09187 -8.15184 30232 ft 505 kts 238°
2026-04-14 04:35 40.04865 -8.22407 30232 ft 505 kts 238°
2026-04-14 04:36 40.00566 -8.29585 30233 ft 505 kts 238°
2026-04-14 04:36 39.96361 -8.36895 30234 ft 503 kts 240°
2026-04-14 04:37 39.92302 -8.44306 30233 ft 502 kts 240°
2026-04-14 04:37 39.88221 -8.51682 30233 ft 502 kts 240°
2026-04-14 04:38 39.84117 -8.59034 30246 ft 502 kts 239°
2026-04-14 04:38 39.80007 -8.66367 30250 ft 501 kts 239°
2026-04-14 04:39 39.75940 -8.73726 30251 ft 501 kts 240°
2026-04-14 04:39 39.71864 -8.81053 30253 ft 500 kts 239°
2026-04-14 04:40 39.67774 -8.88353 30254 ft 500 kts 239°
2026-04-14 04:41 39.61631 -8.99265 30257 ft 499 kts 239°
2026-04-14 04:41 39.57533 -9.06520 30255 ft 498 kts 239°
2026-04-14 04:42 39.53436 -9.13755 30257 ft 498 kts 239°
2026-04-14 04:42 39.49339 -9.20974 30256 ft 497 kts 239°
2026-04-14 04:43 39.45242 -9.28177 30257 ft 497 kts 239°
2026-04-14 04:43 39.41144 -9.35365 30267 ft 496 kts 239°
2026-04-14 04:44 39.37451 -9.41827 30255 ft 496 kts 239°
2026-04-14 04:44 39.33322 -9.49039 30256 ft 496 kts 239°
2026-04-14 04:45 39.29243 -9.56147 30256 ft 496 kts 238°
2026-04-14 04:45 39.25136 -9.63287 30257 ft 495 kts 238°
2026-04-14 04:46 39.21024 -9.70421 30257 ft 495 kts 238°
2026-04-14 04:46 39.16910 -9.77542 30257 ft 495 kts 238°
2026-04-14 04:47 39.12791 -9.84658 30258 ft 495 kts 238°
2026-04-14 04:47 39.08666 -9.91766 30258 ft 495 kts 238°
2026-04-14 04:48 39.04533 -9.98873 30258 ft 496 kts 238°
2026-04-14 04:48 39.00400 -10.05962 30281 ft 494 kts 238°
2026-04-14 04:49 38.96283 -10.13011 30284 ft 493 kts 238°
2026-04-14 04:49 38.92162 -10.20050 30285 ft 493 kts 238°
2026-04-14 04:50 38.88034 -10.27085 30282 ft 494 kts 238°
2026-04-14 04:50 38.83894 -10.34127 30278 ft 494 kts 238°
2026-04-14 04:51 38.79750 -10.41159 30276 ft 494 kts 238°
2026-04-14 04:51 38.75600 -10.48186 30274 ft 494 kts 237°
2026-04-14 04:52 38.71450 -10.55198 30277 ft 494 kts 237°